Weather History for KBDN - April, 2014

Change the Weather History Date:

Monday, April 14, 2014

  Actual Average (KRDM) Record (KRDM)
Temperature  
Mean Temperature 48 °F 44 °F  
Max Temperature 71 °F 59 °F 82 °F (1962)
Min Temperature 26 °F 29 °F 15 °F (1977)
Degree Days  
Heating Degree Days 16 21  
Month to date heating degree days 308  
Since 1 July heating degree days 5759  
Cooling Degree Days 0 0  
Month to date cooling degree days 0  
Year to date cooling degree days 0  
Moisture  
Dew Point 24 °F    
Average Humidity 43    
Maximum Humidity 74    
Minimum Humidity 14    
Precipitation  
Precipitation 0.00 in 0.02 in 0.33 in (2004)
Month to date precipitation 0.31  
Year to date precipitation 2.59  
Sea Level Pressure  
Sea Level Pressure 30.14 in    
Wind  
Wind Speed 4 mph (SSW)    
Max Wind Speed 13 mph    
Max Gust Speed 18 mph    
Visibility 10 miles    
Events      
T = Trace of Precipitation, MM = Missing Value Source: NWS Daily Summary

Daily Weather History Graph

Daily Weather History Graph

Search for Another Location

Airport or City:

Trip Planner

Search our weather history database for the weather conditions in past years. The results will help you decide how hot, cold, wet, or windy it might be!

Date:

Astronomy

Apr. 14, 2014 Rise Set
Actual Time 6:22 AM PDT 7:47 PM PDT
Civil Twilight 5:52 AM PDT 8:17 PM PDT
Nautical Twilight 5:16 AM PDT 8:54 PM PDT
Astronomical Twilight 4:38 AM PDT 9:33 PM PDT
Moon 7:31 PM PDT (4/14) 5:59 AM PDT (4/14)
Length of Visible Light 14h 25m
Length of Day
13h 24m
Full, 100% of the Moon is Illuminated
Apr 14
Full
Apr 15
Full
Apr 22
Last Quarter
Apr 28
New
May 6
First Quarter

Hourly Weather History & Observations

Time (PDT) Temp. Windchill Dew Point Humidity Pressure Visibility Wind Dir Wind Speed Gust Speed Precip Events Conditions
12:15 AM 35.6 °F - 23.0 °F 60% 30.25 in 10.0 mi Calm Calm - N/A   Clear
12:35 AM 33.8 °F - 23.0 °F 65% 30.25 in 10.0 mi Calm Calm - N/A   Clear
12:55 AM 35.6 °F 31.7 °F 23.0 °F 60% 30.25 in 10.0 mi SSW 4.6 mph - N/A   Clear
1:15 AM 35.6 °F 30.7 °F 21.2 °F 56% 30.25 in 10.0 mi SW 5.8 mph - N/A   Clear
1:35 AM 35.6 °F 31.7 °F 21.2 °F 56% 30.25 in 10.0 mi South 4.6 mph - N/A   Clear
2:15 AM 32.0 °F 26.4 °F 21.2 °F 64% 30.24 in 10.0 mi SSW 5.8 mph - N/A   Clear
2:35 AM 32.0 °F 24.8 °F 21.2 °F 64% 30.24 in 10.0 mi SSW 8.1 mph - N/A   Clear
2:55 AM 32.0 °F 27.5 °F 19.4 °F 60% 30.23 in 10.0 mi South 4.6 mph - N/A   Clear
3:15 AM 32.0 °F 25.6 °F 21.2 °F 64% 30.23 in 10.0 mi SSW 6.9 mph - N/A   Clear
3:35 AM 32.0 °F 26.4 °F 23.0 °F 69% 30.23 in 10.0 mi SSW 5.8 mph - N/A   Clear
3:55 AM 32.0 °F 25.6 °F 23.0 °F 69% 30.23 in 10.0 mi SSW 6.9 mph - N/A   Clear
4:15 AM 32.0 °F 27.5 °F 21.2 °F 64% 30.22 in 10.0 mi South 4.6 mph - N/A   Clear
4:35 AM 32.0 °F 26.4 °F 21.2 °F 64% 30.22 in 10.0 mi SSW 5.8 mph - N/A   Clear
5:15 AM 28.4 °F 23.3 °F 19.4 °F 69% 30.20 in 10.0 mi South 4.6 mph - N/A   Clear
5:35 AM 28.4 °F 21.2 °F 19.4 °F 69% 30.19 in 10.0 mi SE 6.9 mph - N/A   Clear
5:55 AM 28.4 °F 24.6 °F 19.4 °F 69% 30.20 in 10.0 mi SSE 3.5 mph - N/A   Clear
6:15 AM 28.4 °F 24.6 °F 19.4 °F 69% 30.19 in 10.0 mi South 3.5 mph - N/A   Clear
6:35 AM 26.6 °F 21.2 °F 19.4 °F 74% 30.20 in 10.0 mi South 4.6 mph - N/A   Clear
6:55 AM 28.4 °F - 19.4 °F 69% 30.20 in 10.0 mi Calm Calm - N/A   Clear
7:15 AM 32.0 °F 27.5 °F 21.2 °F 64% 30.20 in 10.0 mi SSE 4.6 mph - N/A   Clear
7:35 AM 35.6 °F - 21.2 °F 56% 30.19 in 10.0 mi Calm Calm - N/A   Clear
7:55 AM 39.2 °F - 23.0 °F 52% 30.19 in 10.0 mi Calm Calm - N/A   Clear
8:15 AM 44.6 °F 39.2 °F 24.8 °F 46% 30.18 in 10.0 mi SSE 10.4 mph - N/A   Clear
8:35 AM 48.2 °F - 23.0 °F 37% 30.18 in 10.0 mi South 8.1 mph - N/A   Clear
8:55 AM 48.2 °F - 23.0 °F 37% 30.18 in 10.0 mi SSW 9.2 mph - N/A   Clear
9:15 AM 50.0 °F - 23.0 °F 35% 30.18 in 10.0 mi South 4.6 mph - N/A   Clear
9:35 AM 51.8 °F - 19.4 °F 28% 30.17 in 10.0 mi SSE 4.6 mph - N/A   Clear
9:55 AM 53.6 °F - 19.4 °F 26% 30.17 in 10.0 mi South 5.8 mph - N/A   Clear
10:15 AM 55.4 °F - 19.4 °F 25% 30.17 in 10.0 mi South 5.8 mph - N/A   Clear
10:35 AM 57.2 °F - 19.4 °F 23% 30.17 in 10.0 mi ESE 5.8 mph - N/A   Clear
11:15 AM 59.0 °F - 19.4 °F 22% 30.15 in 10.0 mi SE 3.5 mph - N/A   Clear
11:35 AM 60.8 °F - 19.4 °F 20% 30.14 in 10.0 mi SSE 3.5 mph - N/A   Clear
11:55 AM 62.6 °F - 19.4 °F 19% 30.14 in 10.0 mi Calm Calm - N/A   Clear
12:15 PM 62.6 °F - 19.4 °F 19% 30.13 in 10.0 mi Calm Calm - N/A   Clear
12:35 PM 66.2 °F - 21.2 °F 18% 30.12 in 10.0 mi South 6.9 mph - N/A   Clear
12:55 PM 64.4 °F - 21.2 °F 19% 30.11 in 10.0 mi NW 5.8 mph - N/A   Clear
1:15 PM 66.2 °F - 19.4 °F 17% 30.10 in 10.0 mi NE 4.6 mph - N/A   Clear
1:35 PM 69.8 °F - 17.6 °F 14% 30.10 in 10.0 mi South 10.4 mph - N/A   Clear
1:55 PM 69.8 °F - 17.6 °F 14% 30.09 in 10.0 mi South 4.6 mph - N/A   Clear
2:15 PM 71.6 °F - 19.4 °F 14% 30.09 in 10.0 mi West 6.9 mph 17.3 mph N/A   Clear
2:35 PM 69.8 °F - 19.4 °F 15% 30.08 in 10.0 mi NW 5.8 mph - N/A   Clear
2:55 PM 69.8 °F - 21.2 °F 16% 30.07 in 10.0 mi North 9.2 mph - N/A   Clear
3:15 PM 71.6 °F - 23.0 °F 16% 30.07 in 10.0 mi WNW 9.2 mph - N/A   Clear
3:35 PM 68.0 °F - 19.4 °F 16% 30.07 in 10.0 mi Calm Calm - N/A   Clear
3:55 PM 69.8 °F - 19.4 °F 15% 30.06 in 10.0 mi NNW 11.5 mph - N/A   Clear
4:15 PM 68.0 °F - 19.4 °F 16% 30.06 in 10.0 mi NW 11.5 mph - N/A   Clear
4:35 PM 68.0 °F - 24.8 °F 20% 30.06 in 10.0 mi NNW 10.4 mph 16.1 mph N/A   Clear
4:55 PM 66.2 °F - 26.6 °F 23% 30.06 in 10.0 mi NNW 12.7 mph 18.4 mph N/A   Clear
5:15 PM 64.4 °F - 28.4 °F 26% 30.06 in 10.0 mi NNW 10.4 mph - N/A   Clear
5:35 PM 62.6 °F - 30.2 °F 30% 30.06 in 10.0 mi NNW 11.5 mph 16.1 mph N/A   Clear
5:55 PM 62.6 °F - 30.2 °F 30% 30.06 in 10.0 mi NNW 8.1 mph - N/A   Clear
6:15 PM 60.8 °F - 32.0 °F 34% 30.06 in 10.0 mi North 8.1 mph - N/A   Clear
6:35 PM 59.0 °F - 32.0 °F 36% 30.07 in 10.0 mi NNW 6.9 mph - N/A   Clear
6:55 PM 59.0 °F - 32.0 °F 36% 30.06 in 10.0 mi NNW 4.6 mph - N/A   Clear
7:15 PM 59.0 °F - 32.0 °F 36% 30.06 in 10.0 mi NW 5.8 mph - N/A   Clear
7:35 PM 59.0 °F - 32.0 °F 36% 30.05 in 10.0 mi Calm Calm - N/A   Clear
7:55 PM 57.2 °F - 32.0 °F 38% 30.05 in 10.0 mi NNE 3.5 mph - N/A   Clear
8:15 PM 53.6 °F - 32.0 °F 44% 30.05 in 10.0 mi Calm Calm - N/A   Clear
8:35 PM 53.6 °F - 32.0 °F 44% 30.06 in 10.0 mi North 4.6 mph - N/A   Clear
8:55 PM 50.0 °F - 32.0 °F 50% 30.07 in 10.0 mi Calm Calm - N/A   Clear
9:15 PM 50.0 °F - 30.2 °F 47% 30.07 in 10.0 mi North 5.8 mph - N/A   Clear
9:35 PM 50.0 °F - 30.2 °F 47% 30.08 in 10.0 mi NNE 4.6 mph - N/A   Clear
9:55 PM 50.0 °F - 30.2 °F 47% 30.08 in 10.0 mi Calm Calm - N/A   Clear
10:15 PM 46.4 °F - 30.2 °F 53% 30.08 in 10.0 mi Calm Calm - N/A   Clear
10:35 PM 44.6 °F - 32.0 °F 61% 30.09 in 10.0 mi Calm Calm - N/A   Clear
10:55 PM 42.8 °F - 32.0 °F 66% 30.09 in 10.0 mi Calm Calm - N/A   Clear
11:15 PM 42.8 °F 41.1 °F 32.0 °F 66% 30.09 in 10.0 mi East 3.5 mph - N/A   Clear
11:35 PM 41.0 °F - 32.0 °F 70% 30.09 in 10.0 mi Calm Calm - N/A   Clear
11:55 PM 41.0 °F 39.0 °F 32.0 °F 70% 30.09 in 10.0 mi SE 3.5 mph - N/A   Clear